Time,TemperatureF,DewpointF,PressureIn,WindDirection,WindDirectionDegrees,WindSpeedMPH,WindSpeedGustMPH,Humidity,HourlyPrecipIn,Conditions,Clouds,dailyrainin,SoftwareType,DateUTC
2013-01-03 00:00:00,23.3,18.3,28.28,ESE,112,0.0,2.0,81,0.00,,,0.00,Weather View 32 v70,2013-01-03 05:00:00,
2013-01-03 00:03:00,23.4,18.4,28.28,ESE,112,0.0,2.0,81,0.00,,,0.00,Weather View 32 v70,2013-01-03 05:03:00,
2013-01-03 00:04:00,23.4,18.1,28.28,ESE,112,0.0,2.0,80,0.00,,,0.00,Weather View 32 v70,2013-01-03 05:04:00,
2013-01-03 00:09:00,23.5,18.2,28.28,ESE,112,0.0,1.0,80,0.00,,,0.00,Weather View 32 v70,2013-01-03 05:09:00,
2013-01-03 00:14:00,23.5,18.2,28.28,ESE,112,0.0,1.0,80,0.00,,,0.00,Weather View 32 v70,2013-01-03 05:14:00,
2013-01-03 00:19:00,23.5,17.9,28.27,ESE,112,0.0,0.0,79,0.00,,,0.00,Weather View 32 v70,2013-01-03 05:19:00,
2013-01-03 00:24:00,23.7,18.1,28.27,ESE,112,0.0,0.0,79,0.00,,,0.00,Weather View 32 v70,2013-01-03 05:24:00,
2013-01-03 00:29:00,24.1,16.7,28.27,ESE,112,0.0,0.0,73,0.00,,,0.00,Weather View 32 v70,2013-01-03 05:29:00,
2013-01-03 00:34:00,24.6,17.5,28.27,ESE,112,0.0,0.0,74,0.00,,,0.00,Weather View 32 v70,2013-01-03 05:34:00,
2013-01-03 00:39:00,24.9,17.2,28.27,ESE,112,0.0,0.0,72,0.00,,,0.00,Weather View 32 v70,2013-01-03 05:39:00,
2013-01-03 00:44:00,24.9,17.5,28.27,ESE,112,0.0,0.0,73,0.00,,,0.00,Weather View 32 v70,2013-01-03 05:44:00,
2013-01-03 00:49:00,24.5,17.1,28.27,ESE,112,0.0,0.0,73,0.00,,,0.00,Weather View 32 v70,2013-01-03 05:49:00,
2013-01-03 00:54:00,24.0,17.2,28.26,ESE,112,0.0,0.0,75,0.00,,,0.00,Weather View 32 v70,2013-01-03 05:54:00,
2013-01-03 00:59:00,23.8,17.6,28.26,ESE,112,0.0,0.0,77,0.00,,,0.00,Weather View 32 v70,2013-01-03 05:59:00,
2013-01-03 01:04:00,23.6,17.8,28.26,ESE,112,0.0,0.0,78,0.00,,,0.00,Weather View 32 v70,2013-01-03 06:04:00,
2013-01-03 01:09:00,23.6,18.0,28.26,ESE,112,0.0,0.0,79,0.00,,,0.00,Weather View 32 v70,2013-01-03 06:09:00,
2013-01-03 01:14:00,23.5,17.7,28.26,ESE,112,0.0,0.0,78,0.00,,,0.00,Weather View 32 v70,2013-01-03 06:14:00,
2013-01-03 01:19:00,23.5,18.2,28.26,ESE,112,0.0,0.0,80,0.00,,,0.00,Weather View 32 v70,2013-01-03 06:19:00,
2013-01-03 01:24:00,23.6,18.3,28.26,ESE,112,0.0,0.0,80,0.00,,,0.00,Weather View 32 v70,2013-01-03 06:24:00,
2013-01-03 01:29:00,23.6,18.0,28.27,ESE,112,0.0,0.0,79,0.00,,,0.00,Weather View 32 v70,2013-01-03 06:29:00,
2013-01-03 01:34:00,23.5,17.9,28.26,ESE,112,0.0,0.0,79,0.00,,,0.00,Weather View 32 v70,2013-01-03 06:34:00,
2013-01-03 01:39:00,23.4,18.1,28.27,ESE,112,0.0,0.0,80,0.00,,,0.00,Weather View 32 v70,2013-01-03 06:39:00,
2013-01-03 01:44:00,23.5,18.5,28.27,ESE,112,0.0,0.0,81,0.00,,,0.00,Weather View 32 v70,2013-01-03 06:44:00,
2013-01-03 01:49:00,23.5,18.5,28.27,ESE,112,0.0,0.0,81,0.00,,,0.00,Weather View 32 v70,2013-01-03 06:49:00,
2013-01-03 01:54:00,23.5,18.8,28.27,ESE,112,0.0,0.0,82,0.00,,,0.00,Weather View 32 v70,2013-01-03 06:54:00,
2013-01-03 01:59:00,23.6,18.6,28.27,ESE,112,0.0,0.0,81,0.00,,,0.00,Weather View 32 v70,2013-01-03 06:59:00,
2013-01-03 02:04:00,23.7,18.4,28.27,ESE,112,0.0,0.0,80,0.00,,,0.00,Weather View 32 v70,2013-01-03 07:04:00,
2013-01-03 02:09:00,23.8,18.2,28.27,ESE,112,0.0,0.0,79,0.00,,,0.00,Weather View 32 v70,2013-01-03 07:09:00,
2013-01-03 02:14:00,24.1,17.6,28.27,ESE,112,0.0,0.0,76,0.00,,,0.00,Weather View 32 v70,2013-01-03 07:14:00,
2013-01-03 02:19:00,24.5,19.2,28.27,ESE,112,0.0,0.0,80,0.00,,,0.00,Weather View 32 v70,2013-01-03 07:19:00,
2013-01-03 02:24:00,24.8,19.8,28.27,ESE,112,0.0,0.0,81,0.00,,,0.00,Weather View 32 v70,2013-01-03 07:24:00,
2013-01-03 02:29:00,24.9,19.9,28.27,ESE,112,2.0,2.0,81,0.00,,,0.00,Weather View 32 v70,2013-01-03 07:29:00,
2013-01-03 02:34:00,24.9,19.3,28.27,ESE,112,0.0,2.0,79,0.00,,,0.00,Weather View 32 v70,2013-01-03 07:34:00,
2013-01-03 02:39:00,24.8,20.1,28.27,ESE,112,0.0,2.0,82,0.00,,,0.00,Weather View 32 v70,2013-01-03 07:39:00,
2013-01-03 02:44:00,24.5,19.5,28.28,ESE,112,0.0,2.0,81,0.00,,,0.00,Weather View 32 v70,2013-01-03 07:44:00,
2013-01-03 02:49:00,24.2,19.5,28.27,ESE,112,0.0,2.0,82,0.00,,,0.00,Weather View 32 v70,2013-01-03 07:49:00,
2013-01-03 02:54:00,23.9,18.9,28.27,ESE,112,0.0,2.0,81,0.00,,,0.00,Weather View 32 v70,2013-01-03 07:54:00,
2013-01-03 02:59:00,23.7,19.9,28.28,ESE,112,0.0,2.0,85,0.00,,,0.00,Weather View 32 v70,2013-01-03 07:59:00,
2013-01-03 03:04:00,23.6,19.5,28.27,ESE,112,0.0,2.0,84,0.00,,,0.00,Weather View 32 v70,2013-01-03 08:04:00,
2013-01-03 03:09:00,23.5,19.1,28.27,ESE,112,0.0,2.0,83,0.00,,,0.00,Weather View 32 v70,2013-01-03 08:09:00,
2013-01-03 03:14:00,23.6,18.6,28.27,ESE,112,0.0,2.0,81,0.00,,,0.00,Weather View 32 v70,2013-01-03 08:14:00,
2013-01-03 03:19:00,23.7,18.4,28.27,ESE,112,0.0,2.0,80,0.00,,,0.00,Weather View 32 v70,2013-01-03 08:19:00,
2013-01-03 03:24:00,23.9,19.2,28.27,ESE,112,1.0,2.0,82,0.00,,,0.00,Weather View 32 v70,2013-01-03 08:24:00,
2013-01-03 03:29:00,23.9,18.9,28.27,ESE,112,0.0,2.0,81,0.00,,,0.00,Weather View 32 v70,2013-01-03 08:29:00,
2013-01-03 03:34:00,23.8,18.8,28.26,ESE,112,0.0,2.0,81,0.00,,,0.00,Weather View 32 v70,2013-01-03 08:34:00,
2013-01-03 03:39:00,23.8,19.1,28.26,ESE,112,0.0,2.0,82,0.00,,,0.00,Weather View 32 v70,2013-01-03 08:39:00,
2013-01-03 03:44:00,23.8,19.1,28.26,ESE,112,0.0,2.0,82,0.00,,,0.00,Weather View 32 v70,2013-01-03 08:44:00,
2013-01-03 03:49:00,23.8,19.1,28.26,ESE,112,0.0,2.0,82,0.00,,,0.00,Weather View 32 v70,2013-01-03 08:49:00,
2013-01-03 03:54:00,23.6,19.2,28.26,ESE,112,0.0,2.0,83,0.00,,,0.00,Weather View 32 v70,2013-01-03 08:54:00,
2013-01-03 03:59:00,23.5,19.1,28.26,ESE,112,0.0,2.0,83,0.00,,,0.00,Weather View 32 v70,2013-01-03 08:59:00,
2013-01-03 04:04:00,23.3,19.2,28.26,ESE,112,0.0,2.0,84,0.00,,,0.00,Weather View 32 v70,2013-01-03 09:04:00,
2013-01-03 04:09:00,23.1,19.0,28.25,ESE,112,0.0,2.0,84,0.00,,,0.00,Weather View 32 v70,2013-01-03 09:09:00,
2013-01-03 04:14:00,22.9,19.3,28.26,ESE,112,0.0,2.0,86,0.00,,,0.00,Weather View 32 v70,2013-01-03 09:14:00,
2013-01-03 04:19:00,22.7,19.1,28.26,ESE,112,0.0,2.0,86,0.00,,,0.00,Weather View 32 v70,2013-01-03 09:19:00,
2013-01-03 04:24:00,22.5,19.2,28.26,ESE,112,0.0,2.0,87,0.00,,,0.00,Weather View 32 v70,2013-01-03 09:24:00,
2013-01-03 04:29:00,22.1,18.8,28.26,ESE,112,0.0,1.0,87,0.00,,,0.00,Weather View 32 v70,2013-01-03 09:29:00,
2013-01-03 04:34:00,21.8,19.1,28.25,ESE,112,0.0,1.0,89,0.00,,,0.00,Weather View 32 v70,2013-01-03 09:34:00,
2013-01-03 04:39:00,21.7,19.0,28.25,ESE,112,0.0,1.0,89,0.00,,,0.00,Weather View 32 v70,2013-01-03 09:39:00,
2013-01-03 04:44:00,21.5,18.8,28.25,ESE,112,0.0,0.0,89,0.00,,,0.00,Weather View 32 v70,2013-01-03 09:44:00,
2013-01-03 04:49:00,21.9,17.8,28.25,ESE,112,1.0,2.0,84,0.00,,,0.00,Weather View 32 v70,2013-01-03 09:49:00,
2013-01-03 04:54:00,22.5,18.7,28.25,ESE,112,2.0,2.0,85,0.00,,,0.00,Weather View 32 v70,2013-01-03 09:54:00,
2013-01-03 04:59:00,22.6,19.0,28.25,ESE,112,0.0,2.0,86,0.00,,,0.00,Weather View 32 v70,2013-01-03 09:59:00,
2013-01-03 05:04:00,22.2,18.7,28.25,ESE,112,0.0,2.0,86,0.00,,,0.00,Weather View 32 v70,2013-01-03 10:04:00,
2013-01-03 05:09:00,21.7,18.4,28.25,ESE,112,0.0,2.0,87,0.00,,,0.00,Weather View 32 v70,2013-01-03 10:09:00,
2013-01-03 05:14:00,21.0,18.0,28.26,ESE,112,0.0,2.0,88,0.00,,,0.00,Weather View 32 v70,2013-01-03 10:14:00,
2013-01-03 05:19:00,20.4,17.7,28.26,ESE,112,0.0,2.0,89,0.00,,,0.00,Weather View 32 v70,2013-01-03 10:19:00,
2013-01-03 05:24:00,19.7,17.0,28.26,ESE,112,0.0,2.0,89,0.00,,,0.00,Weather View 32 v70,2013-01-03 10:24:00,
2013-01-03 05:29:00,19.1,16.9,28.26,ESE,112,0.0,2.0,91,0.00,,,0.00,Weather View 32 v70,2013-01-03 10:29:00,
2013-01-03 05:34:00,19.0,17.3,28.27,ESE,112,0.0,2.0,93,0.00,,,0.00,Weather View 32 v70,2013-01-03 10:34:00,
2013-01-03 05:39:00,18.9,17.2,28.27,ESE,112,0.0,2.0,93,0.00,,,0.00,Weather View 32 v70,2013-01-03 10:39:00,
2013-01-03 05:44:00,19.2,17.5,28.27,ESE,112,0.0,2.0,93,0.00,,,0.00,Weather View 32 v70,2013-01-03 10:44:00,
2013-01-03 05:49:00,19.8,18.1,28.27,ESE,112,0.0,2.0,93,0.00,,,0.00,Weather View 32 v70,2013-01-03 10:49:00,
2013-01-03 05:54:00,19.8,18.1,28.28,ESE,112,0.0,2.0,93,0.00,,,0.00,Weather View 32 v70,2013-01-03 10:54:00,
2013-01-03 05:59:00,19.6,17.9,28.28,ESE,112,0.0,0.0,93,0.00,,,0.00,Weather View 32 v70,2013-01-03 10:59:00,
2013-01-03 06:04:00,19.4,17.7,28.28,ESE,112,0.0,0.0,93,0.00,,,0.00,Weather View 32 v70,2013-01-03 11:04:00,
2013-01-03 06:09:00,19.9,18.2,28.28,ESE,112,2.0,2.0,93,0.00,,,0.00,Weather View 32 v70,2013-01-03 11:09:00,
2013-01-03 06:14:00,20.5,18.8,28.27,ESE,112,2.0,2.0,93,0.00,,,0.00,Weather View 32 v70,2013-01-03 11:14:00,
2013-01-03 06:19:00,20.5,18.0,28.28,ESE,112,0.0,2.0,90,0.00,,,0.00,Weather View 32 v70,2013-01-03 11:19:00,
2013-01-03 06:25:00,20.4,17.9,28.28,ESE,112,0.0,2.0,90,0.00,,,0.00,Weather View 32 v70,2013-01-03 11:25:00,
2013-01-03 06:30:00,20.0,17.5,28.28,ESE,112,0.0,2.0,90,0.00,,,0.00,Weather View 32 v70,2013-01-03 11:30:00,
2013-01-03 06:35:00,19.6,17.7,28.28,ESE,112,0.0,2.0,92,0.00,,,0.00,Weather View 32 v70,2013-01-03 11:35:00,
2013-01-03 06:40:00,19.1,17.2,28.29,ESE,112,0.0,2.0,92,0.00,,,0.00,Weather View 32 v70,2013-01-03 11:40:00,
2013-01-03 06:45:00,18.7,17.0,28.29,ESE,112,0.0,2.0,93,0.00,,,0.00,Weather View 32 v70,2013-01-03 11:45:00,
2013-01-03 06:50:00,18.5,16.8,28.29,ESE,112,0.0,2.0,93,0.00,,,0.00,Weather View 32 v70,2013-01-03 11:50:00,
2013-01-03 06:55:00,18.3,16.6,28.29,ESE,112,0.0,2.0,93,0.00,,,0.00,Weather View 32 v70,2013-01-03 11:55:00,
2013-01-03 07:00:00,18.6,16.9,28.29,ESE,112,0.0,2.0,93,0.00,,,0.00,Weather View 32 v70,2013-01-03 12:00:00,
2013-01-03 07:05:00,19.1,17.2,28.29,ESE,112,0.0,2.0,92,0.00,,,0.00,Weather View 32 v70,2013-01-03 12:05:00,
2013-01-03 07:10:00,19.2,16.8,28.29,ESE,112,0.0,2.0,90,0.00,,,0.00,Weather View 32 v70,2013-01-03 12:10:00,
2013-01-03 07:15:00,19.1,16.7,28.28,ESE,112,0.0,2.0,90,0.00,,,0.00,Weather View 32 v70,2013-01-03 12:15:00,
2013-01-03 07:20:00,18.9,16.7,28.29,ESE,112,0.0,2.0,91,0.00,,,0.00,Weather View 32 v70,2013-01-03 12:20:00,
2013-01-03 07:25:00,18.7,16.5,28.29,ESE,112,0.0,2.0,91,0.00,,,0.00,Weather View 32 v70,2013-01-03 12:25:00,
2013-01-03 07:30:00,18.6,16.4,28.29,ESE,112,0.0,2.0,91,0.00,,,0.00,Weather View 32 v70,2013-01-03 12:30:00,
2013-01-03 07:35:00,18.4,16.2,28.29,ESE,112,0.0,2.0,91,0.00,,,0.00,Weather View 32 v70,2013-01-03 12:35:00,
2013-01-03 07:40:00,18.3,16.6,28.29,ESE,112,0.0,2.0,93,0.00,,,0.00,Weather View 32 v70,2013-01-03 12:40:00,
2013-01-03 07:45:00,18.3,16.6,28.29,ESE,112,0.0,2.0,93,0.00,,,0.00,Weather View 32 v70,2013-01-03 12:45:00,
2013-01-03 07:50:00,18.4,16.5,28.29,ESE,112,0.0,2.0,92,0.00,,,0.00,Weather View 32 v70,2013-01-03 12:50:00,
2013-01-03 07:55:00,18.3,15.9,28.29,ESE,112,0.0,2.0,90,0.00,,,0.00,Weather View 32 v70,2013-01-03 12:55:00,
2013-01-03 08:00:00,18.5,15.8,28.30,ESE,112,0.0,1.0,89,0.00,,,0.00,Weather View 32 v70,2013-01-03 13:00:00,
2013-01-03 08:05:00,18.5,15.8,28.30,ESE,112,0.0,1.0,89,0.00,,,0.00,Weather View 32 v70,2013-01-03 13:05:00,
2013-01-03 08:10:00,18.4,15.7,28.30,ESE,112,0.0,1.0,89,0.00,,,0.00,Weather View 32 v70,2013-01-03 13:10:00,
2013-01-03 08:15:00,18.5,15.8,28.30,ESE,112,0.0,1.0,89,0.00,,,0.00,Weather View 32 v70,2013-01-03 13:15:00,
2013-01-03 08:20:00,18.8,16.1,28.30,ESE,112,0.0,1.0,89,0.00,,,0.00,Weather View 32 v70,2013-01-03 13:20:00,
2013-01-03 08:25:00,18.9,16.2,28.30,ESE,112,0.0,1.0,89,0.00,,,0.00,Weather View 32 v70,2013-01-03 13:25:00,
2013-01-03 08:30:00,19.3,17.1,28.30,ESE,112,0.0,1.0,91,0.00,,,0.00,Weather View 32 v70,2013-01-03 13:30:00,
2013-01-03 08:35:00,19.6,17.9,28.30,ESE,112,0.0,1.0,93,0.00,,,0.00,Weather View 32 v70,2013-01-03 13:35:00,
2013-01-03 08:40:00,19.9,18.2,28.30,ESE,112,0.0,1.0,93,0.00,,,0.00,Weather View 32 v70,2013-01-03 13:40:00,
2013-01-03 08:45:00,20.5,18.8,28.30,ESE,112,0.0,1.0,93,0.00,,,0.00,Weather View 32 v70,2013-01-03 13:45:00,
2013-01-03 08:50:00,20.9,19.2,28.30,ESE,112,0.0,1.0,93,0.00,,,0.00,Weather View 32 v70,2013-01-03 13:50:00,
2013-01-03 08:55:00,21.5,19.8,28.30,ESE,112,0.0,0.0,93,0.00,,,0.00,Weather View 32 v70,2013-01-03 13:55:00,
2013-01-03 09:00:00,22.1,20.4,28.29,ESE,112,0.0,0.0,93,0.00,,,0.00,Weather View 32 v70,2013-01-03 14:00:00,
2013-01-03 09:05:00,22.6,19.8,28.29,ESE,112,0.0,0.0,89,0.00,,,0.00,Weather View 32 v70,2013-01-03 14:05:00,
2013-01-03 09:10:00,22.9,18.2,28.29,ESE,112,0.0,0.0,82,0.00,,,0.00,Weather View 32 v70,2013-01-03 14:10:00,
2013-01-03 09:15:00,23.4,18.1,28.29,ESE,112,0.0,0.0,80,0.00,,,0.00,Weather View 32 v70,2013-01-03 14:15:00,
2013-01-03 09:21:00,23.7,18.1,28.30,ESE,112,0.0,0.0,79,0.00,,,0.00,Weather View 32 v70,2013-01-03 14:21:00,
2013-01-03 09:26:00,24.1,18.2,28.29,ESE,112,0.0,0.0,78,0.00,,,0.00,Weather View 32 v70,2013-01-03 14:26:00,
2013-01-03 09:31:00,24.6,18.7,28.29,ESE,112,0.0,0.0,78,0.00,,,0.00,Weather View 32 v70,2013-01-03 14:31:00,
2013-01-03 09:36:00,25.0,19.1,28.30,ESE,112,0.0,0.0,78,0.00,,,0.00,Weather View 32 v70,2013-01-03 14:36:00,
2013-01-03 09:41:00,25.4,19.5,28.30,ESE,112,0.0,0.0,78,0.00,,,0.00,Weather View 32 v70,2013-01-03 14:41:00,
2013-01-03 09:46:00,25.9,19.7,28.30,ESE,112,0.0,0.0,77,0.00,,,0.00,Weather View 32 v70,2013-01-03 14:46:00,
2013-01-03 09:51:00,26.6,19.4,28.30,ESE,112,2.0,2.0,74,0.00,,,0.00,Weather View 32 v70,2013-01-03 14:51:00,
2013-01-03 09:56:00,26.9,18.8,28.29,ESE,112,1.0,2.0,71,0.00,,,0.00,Weather View 32 v70,2013-01-03 14:56:00,
2013-01-03 10:01:00,27.0,18.9,28.29,ESE,112,0.0,2.0,71,0.00,,,0.00,Weather View 32 v70,2013-01-03 15:01:00,
2013-01-03 10:06:00,27.5,19.7,28.29,ESE,112,0.0,2.0,72,0.00,,,0.00,Weather View 32 v70,2013-01-03 15:06:00,
2013-01-03 10:11:00,27.9,20.0,28.29,ESE,112,0.0,2.0,72,0.00,,,0.00,Weather View 32 v70,2013-01-03 15:11:00,
2013-01-03 10:16:00,28.5,21.9,28.29,ESE,112,0.0,2.0,76,0.00,,,0.00,Weather View 32 v70,2013-01-03 15:16:00,
2013-01-03 10:21:00,29.3,22.4,28.30,ESE,112,2.0,2.0,75,0.00,,,0.00,Weather View 32 v70,2013-01-03 15:21:00,
2013-01-03 10:26:00,28.9,20.0,28.29,ESE,112,2.0,2.0,69,0.00,,,0.00,Weather View 32 v70,2013-01-03 15:26:00,
2013-01-03 10:31:00,28.8,20.6,28.29,ESE,112,1.0,2.0,71,0.00,,,0.00,Weather View 32 v70,2013-01-03 15:31:00,
2013-01-03 10:36:00,28.8,20.9,28.29,ESE,112,0.0,2.0,72,0.00,,,0.00,Weather View 32 v70,2013-01-03 15:36:00,
2013-01-03 10:41:00,28.9,21.0,28.29,ESE,112,1.0,2.0,72,0.00,,,0.00,Weather View 32 v70,2013-01-03 15:41:00,
2013-01-03 10:46:00,28.9,21.3,28.29,ESE,112,2.0,2.0,73,0.00,,,0.00,Weather View 32 v70,2013-01-03 15:46:00,
2013-01-03 10:51:00,28.7,20.8,28.29,ESE,112,3.0,3.0,72,0.00,,,0.00,Weather View 32 v70,2013-01-03 15:51:00,
2013-01-03 10:56:00,28.9,20.7,28.29,ESE,112,3.0,3.0,71,0.00,,,0.00,Weather View 32 v70,2013-01-03 15:56:00,
2013-01-03 11:01:00,29.3,21.4,28.29,ESE,112,2.0,3.0,72,0.00,,,0.00,Weather View 32 v70,2013-01-03 16:01:00,
2013-01-03 11:06:00,29.8,21.5,28.29,ESE,112,1.0,3.0,71,0.00,,,0.00,Weather View 32 v70,2013-01-03 16:06:00,
2013-01-03 11:11:00,30.0,20.7,28.29,ESE,112,1.0,3.0,68,0.00,,,0.00,Weather View 32 v70,2013-01-03 16:11:00,
2013-01-03 11:16:00,30.1,20.8,28.28,SE,135,1.0,3.0,68,0.00,,,0.00,Weather View 32 v70,2013-01-03 16:16:00,
2013-01-03 11:21:00,30.1,20.5,28.28,ESE,112,2.0,3.0,67,0.00,,,0.00,Weather View 32 v70,2013-01-03 16:21:00,
2013-01-03 11:26:00,30.8,22.8,28.28,ESE,112,0.0,3.0,72,0.00,,,0.00,Weather View 32 v70,2013-01-03 16:26:00,
2013-01-03 11:31:00,32.2,24.8,28.28,ESE,112,1.0,3.0,74,0.00,,,0.00,Weather View 32 v70,2013-01-03 16:31:00,
2013-01-03 11:36:00,33.7,26.6,28.28,SW,225,0.0,3.0,75,0.00,,,0.00,Weather View 32 v70,2013-01-03 16:36:00,
2013-01-03 11:41:00,35.1,25.9,28.27,SW,225,0.0,3.0,69,0.00,,,0.00,Weather View 32 v70,2013-01-03 16:41:00,
2013-01-03 11:46:00,36.0,22.6,28.27,SE,135,1.0,3.0,58,0.00,,,0.00,Weather View 32 v70,2013-01-03 16:46:00,
2013-01-03 11:51:00,36.4,22.2,28.27,SE,135,0.0,3.0,56,0.00,,,0.00,Weather View 32 v70,2013-01-03 16:51:00,
2013-01-03 11:56:00,36.7,23.7,28.27,SE,135,0.0,3.0,59,0.00,,,0.00,Weather View 32 v70,2013-01-03 16:56:00,
2013-01-03 12:01:00,37.7,25.1,28.27,South,180,1.0,3.0,60,0.00,,,0.00,Weather View 32 v70,2013-01-03 17:01:00,
2013-01-03 12:06:00,38.3,24.4,28.26,South,180,1.0,3.0,57,0.00,,,0.00,Weather View 32 v70,2013-01-03 17:06:00,
2013-01-03 12:11:00,38.9,24.9,28.26,SSE,157,0.0,3.0,57,0.00,,,0.00,Weather View 32 v70,2013-01-03 17:11:00,
2013-01-03 12:17:00,38.8,23.1,28.26,North,360,2.0,3.0,53,0.00,,,0.00,Weather View 32 v70,2013-01-03 17:17:00,
2013-01-03 12:22:00,37.9,22.7,28.26,North,360,1.0,3.0,54,0.00,,,0.00,Weather View 32 v70,2013-01-03 17:22:00,
2013-01-03 12:27:00,37.5,24.0,28.26,North,360,0.0,3.0,58,0.00,,,0.00,Weather View 32 v70,2013-01-03 17:27:00,
2013-01-03 12:32:00,37.4,23.1,28.26,NNE,22,2.0,3.0,56,0.00,,,0.00,Weather View 32 v70,2013-01-03 17:32:00,
2013-01-03 12:37:00,36.9,23.1,28.25,NNE,22,3.0,4.0,57,0.00,,,0.00,Weather View 32 v70,2013-01-03 17:37:00,
2013-01-03 12:42:00,35.9,22.5,28.24,NE,45,1.0,4.0,58,0.00,,,0.00,Weather View 32 v70,2013-01-03 17:42:00,
2013-01-03 12:47:00,35.5,23.0,28.24,NNE,22,2.0,4.0,60,0.00,,,0.00,Weather View 32 v70,2013-01-03 17:47:00,
2013-01-03 12:52:00,35.1,23.0,28.24,NNE,22,2.0,4.0,61,0.00,,,0.00,Weather View 32 v70,2013-01-03 17:52:00,
2013-01-03 12:57:00,35.1,23.4,28.24,NNE,22,1.0,4.0,62,0.00,,,0.00,Weather View 32 v70,2013-01-03 17:57:00,
2013-01-03 13:02:00,35.3,24.0,28.24,NNE,22,2.0,4.0,63,0.00,,,0.00,Weather View 32 v70,2013-01-03 18:02:00,
2013-01-03 13:07:00,35.8,26.3,28.23,NNE,22,0.0,4.0,68,0.00,,,0.00,Weather View 32 v70,2013-01-03 18:07:00,
2013-01-03 13:12:00,37.0,26.7,28.23,North,360,3.0,4.0,66,0.00,,,0.00,Weather View 32 v70,2013-01-03 18:12:00,
2013-01-03 13:17:00,38.0,25.3,28.23,North,360,2.0,4.0,60,0.00,,,0.00,Weather View 32 v70,2013-01-03 18:17:00,
2013-01-03 13:22:00,38.1,25.0,28.23,East,90,1.0,4.0,59,0.00,,,0.00,Weather View 32 v70,2013-01-03 18:22:00,
2013-01-03 13:27:00,38.2,25.1,28.23,ENE,67,0.0,4.0,59,0.00,,,0.00,Weather View 32 v70,2013-01-03 18:27:00,
2013-01-03 13:32:00,38.9,26.2,28.23,East,90,0.0,4.0,60,0.00,,,0.00,Weather View 32 v70,2013-01-03 18:32:00,
2013-01-03 13:37:00,39.2,25.6,28.23,NE,45,2.0,4.0,58,0.00,,,0.00,Weather View 32 v70,2013-01-03 18:37:00,
2013-01-03 13:42:00,39.1,24.7,28.23,NE,45,1.0,4.0,56,0.00,,,0.00,Weather View 32 v70,2013-01-03 18:42:00,
2013-01-03 13:47:00,39.0,25.0,28.22,ESE,112,2.0,4.0,57,0.00,,,0.00,Weather View 32 v70,2013-01-03 18:47:00,
2013-01-03 13:52:00,38.3,24.4,28.23,East,90,1.0,4.0,57,0.00,,,0.00,Weather View 32 v70,2013-01-03 18:52:00,
2013-01-03 13:57:00,38.5,26.2,28.23,East,90,2.0,4.0,61,0.00,,,0.00,Weather View 32 v70,2013-01-03 18:57:00,
2013-01-03 14:02:00,37.8,24.3,28.22,ESE,112,3.0,5.0,58,0.00,,,0.00,Weather View 32 v70,2013-01-03 19:02:00,
2013-01-03 14:07:00,38.7,27.2,28.22,ESE,112,2.0,5.0,63,0.00,,,0.00,Weather View 32 v70,2013-01-03 19:07:00,
2013-01-03 14:12:00,38.1,23.3,28.22,ESE,112,2.0,5.0,55,0.00,,,0.00,Weather View 32 v70,2013-01-03 19:12:00,
2013-01-03 14:17:00,38.4,24.5,28.22,ESE,112,2.0,5.0,57,0.00,,,0.00,Weather View 32 v70,2013-01-03 19:17:00,
2013-01-03 14:53:00,42.5,24.2,28.23,NNE,22,4.0,5.0,48,0.00,,,0.00,Weather View 32 v70,2013-01-03 19:53:00,
2013-01-03 14:58:00,40.9,21.2,28.23,NE,45,4.0,8.0,45,0.00,,,0.00,Weather View 32 v70,2013-01-03 19:58:00,
2013-01-03 15:03:00,41.1,21.9,28.24,NE,45,2.0,8.0,46,0.00,,,0.00,Weather View 32 v70,2013-01-03 20:03:00,
2013-01-03 15:08:00,41.6,23.3,28.24,NE,45,2.0,8.0,48,0.00,,,0.00,Weather View 32 v70,2013-01-03 20:08:00,
2013-01-03 15:13:00,41.9,25.1,28.24,NE,45,2.0,8.0,51,0.00,,,0.00,Weather View 32 v70,2013-01-03 20:13:00,
2013-01-03 15:18:00,41.8,24.5,28.24,North,360,5.0,8.0,50,0.00,,,0.00,Weather View 32 v70,2013-01-03 20:18:00,
2013-01-03 15:23:00,41.8,26.4,28.24,NE,45,2.0,8.0,54,0.00,,,0.00,Weather View 32 v70,2013-01-03 20:23:00,
2013-01-03 15:28:00,41.7,26.7,28.24,East,90,1.0,8.0,55,0.00,,,0.00,Weather View 32 v70,2013-01-03 20:28:00,
2013-01-03 15:33:00,41.4,24.1,28.24,ENE,67,1.0,8.0,50,0.00,,,0.00,Weather View 32 v70,2013-01-03 20:33:00,
2013-01-03 15:38:00,41.7,24.9,28.24,NE,45,3.0,8.0,51,0.00,,,0.00,Weather View 32 v70,2013-01-03 20:38:00,
2013-01-03 15:44:00,41.7,26.3,28.24,East,90,1.0,8.0,54,0.00,,,0.00,Weather View 32 v70,2013-01-03 20:44:00,
2013-01-03 15:49:00,41.8,25.9,28.24,NE,45,2.0,8.0,53,0.00,,,0.00,Weather View 32 v70,2013-01-03 20:49:00,
2013-01-03 15:54:00,41.6,25.3,28.24,NE,45,2.0,8.0,52,0.00,,,0.00,Weather View 32 v70,2013-01-03 20:54:00,
2013-01-03 15:59:00,40.9,24.6,28.25,NE,45,3.0,6.0,52,0.00,,,0.00,Weather View 32 v70,2013-01-03 20:59:00,
2013-01-03 16:04:00,40.5,24.2,28.25,NE,45,2.0,6.0,52,0.00,,,0.00,Weather View 32 v70,2013-01-03 21:04:00,
2013-01-03 16:09:00,40.5,23.8,28.25,NE,45,2.0,6.0,51,0.00,,,0.00,Weather View 32 v70,2013-01-03 21:09:00,
2013-01-03 16:14:00,40.0,24.7,28.25,East,90,2.0,6.0,54,0.00,,,0.00,Weather View 32 v70,2013-01-03 21:14:00,
2013-01-03 16:19:00,40.0,23.8,28.26,North,360,2.0,6.0,52,0.00,,,0.00,Weather View 32 v70,2013-01-03 21:19:00,
2013-01-03 16:24:00,39.9,24.1,28.26,NNE,22,0.0,4.0,53,0.00,,,0.00,Weather View 32 v70,2013-01-03 21:24:00,
2013-01-03 16:29:00,39.4,22.8,28.26,NE,45,1.0,4.0,51,0.00,,,0.00,Weather View 32 v70,2013-01-03 21:29:00,
2013-01-03 16:34:00,38.9,23.2,28.26,NE,45,2.0,4.0,53,0.00,,,0.00,Weather View 32 v70,2013-01-03 21:34:00,
2013-01-03 16:39:00,38.7,23.9,28.26,East,90,1.0,4.0,55,0.00,,,0.00,Weather View 32 v70,2013-01-03 21:39:00,
2013-01-03 16:44:00,38.5,23.3,28.26,ENE,67,1.0,4.0,54,0.00,,,0.00,Weather View 32 v70,2013-01-03 21:44:00,
2013-01-03 16:49:00,38.3,24.0,28.26,ENE,67,1.0,4.0,56,0.00,,,0.00,Weather View 32 v70,2013-01-03 21:49:00,
2013-01-03 16:54:00,37.7,22.5,28.26,ENE,67,0.0,4.0,54,0.00,,,0.00,Weather View 32 v70,2013-01-03 21:54:00,
2013-01-03 16:59:00,36.7,19.8,28.26,SSE,157,1.0,4.0,50,0.00,,,0.00,Weather View 32 v70,2013-01-03 21:59:00,
2013-01-03 17:04:00,35.9,22.1,28.26,SW,225,0.0,4.0,57,0.00,,,0.00,Weather View 32 v70,2013-01-03 22:04:00,
2013-01-03 17:09:00,35.2,22.3,28.26,SW,225,1.0,4.0,59,0.00,,,0.00,Weather View 32 v70,2013-01-03 22:09:00,
2013-01-03 17:14:00,34.4,20.7,28.26,SSE,157,1.0,4.0,57,0.00,,,0.00,Weather View 32 v70,2013-01-03 22:14:00,
2013-01-03 17:19:00,34.2,20.5,28.26,SW,225,1.0,4.0,57,0.00,,,0.00,Weather View 32 v70,2013-01-03 22:19:00,
2013-01-03 17:24:00,33.9,21.1,28.26,NW,315,1.0,4.0,59,0.00,,,0.00,Weather View 32 v70,2013-01-03 22:24:00,
2013-01-03 17:29:00,33.2,21.2,28.26,North,360,0.0,4.0,61,0.00,,,0.00,Weather View 32 v70,2013-01-03 22:29:00,
2013-01-03 17:34:00,32.7,19.9,28.26,NW,315,2.0,4.0,59,0.00,,,0.00,Weather View 32 v70,2013-01-03 22:34:00,
2013-01-03 17:39:00,32.9,19.7,28.26,NW,315,0.0,4.0,58,0.00,,,0.00,Weather View 32 v70,2013-01-03 22:39:00,
2013-01-03 17:44:00,32.9,18.9,28.26,NW,315,3.0,4.0,56,0.00,,,0.00,Weather View 32 v70,2013-01-03 22:44:00,
2013-01-03 17:49:00,33.2,18.3,28.26,West,270,1.0,7.0,54,0.00,,,0.00,Weather View 32 v70,2013-01-03 22:49:00,
2013-01-03 17:54:00,33.2,18.3,28.26,NW,315,1.0,7.0,54,0.00,,,0.00,Weather View 32 v70,2013-01-03 22:54:00,
2013-01-03 17:59:00,33.4,16.7,28.26,WNW,292,5.0,7.0,50,0.00,,,0.00,Weather View 32 v70,2013-01-03 22:59:00,
2013-01-03 18:04:00,33.7,16.1,28.26,WNW,292,7.0,7.0,48,0.00,,,0.00,Weather View 32 v70,2013-01-03 23:04:00,
2013-01-03 18:09:00,33.9,15.8,28.26,West,270,2.0,7.0,47,0.00,,,0.00,Weather View 32 v70,2013-01-03 23:09:00,
2013-01-03 18:14:00,33.9,15.3,28.26,West,270,2.0,7.0,46,0.00,,,0.00,Weather View 32 v70,2013-01-03 23:14:00,
2013-01-03 18:19:00,33.9,15.8,28.26,West,270,2.0,7.0,47,0.00,,,0.00,Weather View 32 v70,2013-01-03 23:19:00,
2013-01-03 18:24:00,34.1,15.5,28.26,WNW,292,7.0,11.0,46,0.00,,,0.00,Weather View 32 v70,2013-01-03 23:24:00,
2013-01-03 18:29:00,34.9,14.6,28.26,WNW,292,9.0,16.0,43,0.00,,,0.00,Weather View 32 v70,2013-01-03 23:29:00,
2013-01-03 18:34:00,35.1,15.9,28.26,WNW,292,5.0,16.0,45,0.00,,,0.00,Weather View 32 v70,2013-01-03 23:34:00,
2013-01-03 18:39:00,34.6,15.4,28.27,WNW,292,4.0,16.0,45,0.00,,,0.00,Weather View 32 v70,2013-01-03 23:39:00,
2013-01-03 18:44:00,34.3,15.1,28.27,WNW,292,4.0,16.0,45,0.00,,,0.00,Weather View 32 v70,2013-01-03 23:44:00,
2013-01-03 18:49:00,34.3,14.6,28.27,West,270,4.0,16.0,44,0.00,,,0.00,Weather View 32 v70,2013-01-03 23:49:00,
2013-01-03 18:54:00,34.3,14.6,28.27,West,270,4.0,16.0,44,0.00,,,0.00,Weather View 32 v70,2013-01-03 23:54:00,
2013-01-03 18:59:00,34.2,14.5,28.27,WNW,292,4.0,16.0,44,0.00,,,0.00,Weather View 32 v70,2013-01-03 23:59:00,
2013-01-03 19:04:00,34.1,14.4,28.26,West,270,1.0,16.0,44,0.00,,,0.00,Weather View 32 v70,2013-01-04 00:04:00,
2013-01-03 19:09:00,33.6,14.5,28.27,West,270,2.0,16.0,45,0.00,,,0.00,Weather View 32 v70,2013-01-04 00:09:00,
2013-01-03 19:14:00,33.3,14.2,28.27,West,270,1.0,16.0,45,0.00,,,0.00,Weather View 32 v70,2013-01-04 00:14:00,
2013-01-03 19:19:00,33.0,15.4,28.26,SW,225,1.0,16.0,48,0.00,,,0.00,Weather View 32 v70,2013-01-04 00:19:00,
2013-01-03 19:24:00,32.9,14.9,28.27,WNW,292,2.0,16.0,47,0.00,,,0.00,Weather View 32 v70,2013-01-04 00:24:00,
2013-01-03 19:29:00,32.9,14.9,28.27,West,270,2.0,12.0,47,0.00,,,0.00,Weather View 32 v70,2013-01-04 00:29:00,
2013-01-03 19:34:00,32.9,14.4,28.26,West,270,3.0,9.0,46,0.00,,,0.00,Weather View 32 v70,2013-01-04 00:34:00,
2013-01-03 19:40:00,32.9,14.4,28.26,West,270,3.0,9.0,46,0.00,,,0.00,Weather View 32 v70,2013-01-04 00:40:00,
2013-01-03 19:45:00,32.9,14.9,28.27,West,270,2.0,9.0,47,0.00,,,0.00,Weather View 32 v70,2013-01-04 00:45:00,
2013-01-03 19:50:00,33.3,14.2,28.26,SW,225,2.0,7.0,45,0.00,,,0.00,Weather View 32 v70,2013-01-04 00:50:00,
2013-01-03 19:55:00,33.4,14.3,28.26,West,270,3.0,7.0,45,0.00,,,0.00,Weather View 32 v70,2013-01-04 00:55:00,
2013-01-03 20:00:00,33.9,14.3,28.26,West,270,7.0,13.0,44,0.00,,,0.00,Weather View 32 v70,2013-01-04 01:00:00,
2013-01-03 20:05:00,33.9,15.3,28.26,SW,225,2.0,13.0,46,0.00,,,0.00,Weather View 32 v70,2013-01-04 01:05:00,
2013-01-03 20:10:00,33.9,14.3,28.26,West,270,5.0,13.0,44,0.00,,,0.00,Weather View 32 v70,2013-01-04 01:10:00,
2013-01-03 20:15:00,33.4,14.8,28.26,West,270,2.0,13.0,46,0.00,,,0.00,Weather View 32 v70,2013-01-04 01:15:00,
2013-01-03 20:20:00,33.3,14.7,28.27,WSW,247,4.0,13.0,46,0.00,,,0.00,Weather View 32 v70,2013-01-04 01:20:00,
2013-01-03 20:25:00,33.3,15.2,28.26,West,270,7.0,13.0,47,0.00,,,0.00,Weather View 32 v70,2013-01-04 01:25:00,
2013-01-03 20:30:00,33.7,15.1,28.26,West,270,2.0,13.0,46,0.00,,,0.00,Weather View 32 v70,2013-01-04 01:30:00,
2013-01-03 20:35:00,33.2,15.6,28.27,SW,225,3.0,13.0,48,0.00,,,0.00,Weather View 32 v70,2013-01-04 01:35:00,
2013-01-03 20:40:00,33.2,15.1,28.27,SW,225,2.0,13.0,47,0.00,,,0.00,Weather View 32 v70,2013-01-04 01:40:00,
2013-01-03 20:45:00,33.3,15.7,28.27,West,270,6.0,13.0,48,0.00,,,0.00,Weather View 32 v70,2013-01-04 01:45:00,
2013-01-03 20:50:00,33.3,15.7,28.27,West,270,3.0,13.0,48,0.00,,,0.00,Weather View 32 v70,2013-01-04 01:50:00,
2013-01-03 20:55:00,33.3,16.2,28.27,WSW,247,2.0,13.0,49,0.00,,,0.00,Weather View 32 v70,2013-01-04 01:55:00,
2013-01-03 21:00:00,33.6,16.0,28.27,SW,225,4.0,11.0,48,0.00,,,0.00,Weather View 32 v70,2013-01-04 02:00:00,
2013-01-03 21:05:00,33.3,16.6,28.27,SW,225,6.0,11.0,50,0.00,,,0.00,Weather View 32 v70,2013-01-04 02:05:00,
2013-01-03 21:10:00,33.3,16.6,28.28,WSW,247,4.0,11.0,50,0.00,,,0.00,Weather View 32 v70,2013-01-04 02:10:00,
2013-01-03 21:15:00,33.3,16.6,28.28,SW,225,5.0,11.0,50,0.00,,,0.00,Weather View 32 v70,2013-01-04 02:15:00,
2013-01-03 21:20:00,33.2,17.0,28.28,West,270,5.0,11.0,51,0.00,,,0.00,Weather View 32 v70,2013-01-04 02:20:00,
2013-01-03 21:25:00,32.9,17.2,28.28,SW,225,6.0,11.0,52,0.00,,,0.00,Weather View 32 v70,2013-01-04 02:25:00,
2013-01-03 21:30:00,32.8,17.5,28.28,West,270,7.0,11.0,53,0.00,,,0.00,Weather View 32 v70,2013-01-04 02:30:00,
2013-01-03 21:35:00,32.9,18.1,28.29,WNW,292,11.0,13.0,54,0.00,,,0.00,Weather View 32 v70,2013-01-04 02:35:00,
2013-01-03 21:40:00,33.1,18.2,28.28,WNW,292,9.0,14.0,54,0.00,,,0.00,Weather View 32 v70,2013-01-04 02:40:00,
2013-01-03 21:45:00,33.4,17.6,28.29,WSW,247,9.0,14.0,52,0.00,,,0.00,Weather View 32 v70,2013-01-04 02:45:00,
2013-01-03 21:50:00,33.3,18.4,28.28,West,270,10.0,14.0,54,0.00,,,0.00,Weather View 32 v70,2013-01-04 02:50:00,
2013-01-03 21:55:00,32.9,18.5,28.28,West,270,11.0,14.0,55,0.00,,,0.00,Weather View 32 v70,2013-01-04 02:55:00,
2013-01-03 22:00:00,32.8,18.4,28.28,NW,315,9.0,14.0,55,0.00,,,0.00,Weather View 32 v70,2013-01-04 03:00:00,
2013-01-03 22:05:00,32.9,18.1,28.28,WNW,292,14.0,19.0,54,0.00,,,0.00,Weather View 32 v70,2013-01-04 03:05:00,
2013-01-03 22:10:00,33.3,18.4,28.28,NW,315,6.0,19.0,54,0.00,,,0.00,Weather View 32 v70,2013-01-04 03:10:00,
2013-01-03 22:15:00,33.0,18.6,28.28,WSW,247,0.0,19.0,55,0.00,,,0.00,Weather View 32 v70,2013-01-04 03:15:00,
2013-01-03 22:20:00,32.9,18.9,28.28,NW,315,2.0,19.0,56,0.00,,,0.00,Weather View 32 v70,2013-01-04 03:20:00,
2013-01-03 22:25:00,32.5,18.1,28.29,NW,315,1.0,19.0,55,0.00,,,0.00,Weather View 32 v70,2013-01-04 03:25:00,
2013-01-03 22:30:00,32.2,18.3,28.29,WNW,292,7.0,19.0,56,0.00,,,0.00,Weather View 32 v70,2013-01-04 03:30:00,
2013-01-03 22:35:00,32.3,18.8,28.29,West,270,1.0,19.0,57,0.00,,,0.00,Weather View 32 v70,2013-01-04 03:35:00,
2013-01-03 22:40:00,32.5,18.5,28.29,SSW,202,2.0,19.0,56,0.00,,,0.00,Weather View 32 v70,2013-01-04 03:40:00,
2013-01-03 22:45:00,32.3,18.8,28.29,WSW,247,4.0,19.0,57,0.00,,,0.00,Weather View 32 v70,2013-01-04 03:45:00,
2013-01-03 22:51:00,32.3,18.8,28.29,NW,315,6.0,19.0,57,0.00,,,0.00,Weather View 32 v70,2013-01-04 03:51:00,
2013-01-03 22:56:00,32.2,18.7,28.29,West,270,5.0,19.0,57,0.00,,,0.00,Weather View 32 v70,2013-01-04 03:56:00,
2013-01-03 23:01:00,31.8,19.1,28.28,West,270,11.0,19.0,59,0.00,,,0.00,Weather View 32 v70,2013-01-04 04:01:00,
2013-01-03 23:06:00,32.1,19.4,28.28,West,270,9.0,18.0,59,0.00,,,0.00,Weather View 32 v70,2013-01-04 04:06:00,
2013-01-03 23:11:00,32.3,19.6,28.28,WSW,247,4.0,18.0,59,0.00,,,0.00,Weather View 32 v70,2013-01-04 04:11:00,
2013-01-03 23:16:00,32.2,19.5,28.28,West,270,8.0,18.0,59,0.00,,,0.00,Weather View 32 v70,2013-01-04 04:16:00,
2013-01-03 23:21:00,32.6,19.4,28.28,SW,225,4.0,18.0,58,0.00,,,0.00,Weather View 32 v70,2013-01-04 04:21:00,
2013-01-03 23:26:00,32.5,19.4,28.28,WNW,292,5.0,18.0,58,0.00,,,0.00,Weather View 32 v70,2013-01-04 04:26:00,
2013-01-03 23:31:00,32.4,19.7,28.28,SW,225,9.0,18.0,59,0.00,,,0.00,Weather View 32 v70,2013-01-04 04:31:00,
2013-01-03 23:36:00,32.3,19.6,28.28,WSW,247,4.0,18.0,59,0.00,,,0.00,Weather View 32 v70,2013-01-04 04:36:00,
2013-01-03 23:41:00,32.3,19.6,28.28,SW,225,4.0,18.0,59,0.00,,,0.00,Weather View 32 v70,2013-01-04 04:41:00,
2013-01-03 23:46:00,32.3,19.6,28.28,SW,225,7.0,18.0,59,0.00,,,0.00,Weather View 32 v70,2013-01-04 04:46:00,
2013-01-03 23:51:00,32.3,19.6,28.28,SW,225,4.0,18.0,59,0.00,,,0.00,Weather View 32 v70,2013-01-04 04:51:00,
2013-01-03 23:56:00,31.9,19.6,28.27,SW,225,5.0,18.0,60,0.00,,,0.00,Weather View 32 v70,2013-01-04 04:56:00,